Regional Weather Roundup
Issued by NWS

Home | Current Version | Previous Version | Graphics & Text | Print | Product List | Glossary On
Versions: 1 2 3 4 5 6 7 8 9 10 11 12 13 14 15 16 17 18 19 20 21 22 23 24 25 26 27 28 29 30 31 32 33 34 35 36 37 38 39 40 41 42 43 44 45 46 47 48 49 50
000
ASUS43 KBIS 070502
RWRND

NORTH DAKOTA REGIONAL WEATHER ROUNDUP
NATIONAL WEATHER SERVICE BISMARCK ND
1100 PM CST TUE DEC 06 2016

NOTE: "FAIR" INDICATES FEW OR NO CLOUDS BELOW 12,000 FEET WITH NO
SIGNIFICANT WEATHER AND/OR OBSTRUCTIONS TO VISIBILITY.


NDZ001>003-009>011-017-070600-
NORTHWEST NORTH DAKOTA

CITY           SKY/WX    TMP DP  RH WIND       PRES   REMARKS
WILLISTON      CLOUDY     3  -4  72 NW10G21   30.17R WCI -12
MINOT          SNOW       7   3  84 W32G43    29.99R VSB 1/4 WCI -17
MINOT AFB      SNOW       6   2  84 W35G46    29.97S VSB 1/4 WCI -19
$$

NDZ018>021-031>035-040>046-070600-
SOUTHWEST NORTH DAKOTA

CITY           SKY/WX    TMP DP  RH WIND       PRES   REMARKS
BISMARCK       MIX PCPN   6   4  91 W20G28    30.07R WCI -14
DICKINSON      CLOUDY     0  -6  76 NW24G33   30.07R HAZE    WCI -24
GARRISON         N/A      5   1  83 NW24      30.02R WCI -17
HETTINGER ARPT CLOUDY     3  -3  76 NW23      30.09R WCI -19
$$

NDZ004>008-012>016-024-026-027-054-070600-
NORTHEAST NORTH DAKOTA

CITY           SKY/WX    TMP DP  RH WIND       PRES   REMARKS
GRAND FORKS    LGT SNOW  18  13  80 W28G40    29.71R BLWGSNOWWCI  -1
GRND FRKS AFB  LGT SNOW  17  11  79 NW25G37   29.73R WCI  -2
DEVILS LAKE    LGT SNOW   9   6  88 W35G41    29.80R VSB 3/4 WCI -15
$$

NDZ022-023-025-028>030-036>039-047>053-070600-
SOUTHEAST NORTH DAKOTA

CITY           SKY/WX    TMP DP  RH WIND       PRES   REMARKS
FARGO          CLOUDY    15   9  76 W31G37    29.79R WCI  -6
JAMESTOWN      LGT SNOW   8   4  83 NW30G44   29.87R VSB 1   WCI -15
$$




USA.gov is the U.S. government's official web portal to all federal, state and local government web resources and services.